Location: Lima
(44.6384°N, 112.5920°W)
Time: 23:48:57
(UTC+00:00)

First-Move - Visible Passes

Search period start: 23 April 2024 00:00
Search period end: 03 May 2024 00:00
Orbit: 540 x 605 km, 97.7° (Epoch: 23 April)

Date Brightness Start Highest point End Pass type
(mag) Time Alt. Az. Time Alt. Az. Time Alt. Az.
23 Apr ? 10:24:57 10° NNE 10:28:52 34° E 10:32:16 13° SSE visible
23 Apr ? 12:00:28 10° NNW 12:03:51 23° WNW 12:07:15 10° WSW visible
24 Apr ? 10:27:38 10° NNE 10:31:36 37° E 10:35:07 12° SSE visible
25 Apr ? 10:30:15 10° NNE 10:34:16 39° E 10:37:54 12° SSE visible
26 Apr ? 10:32:49 10° NNE 10:36:53 42° E 10:40:38 12° SSE visible
27 Apr ? 10:35:20 10° NNE 10:39:27 45° E 10:43:17 11° S visible
28 Apr ? 10:37:48 10° NNE 10:41:56 47° E 10:45:53 11° S visible
29 Apr ? 10:40:13 10° NNE 10:44:23 50° E 10:48:26 10° S visible
30 Apr ? 10:42:35 10° NNE 10:46:47 54° E 10:50:54 10° S visible
01 May ? 10:44:54 10° NNE 10:49:06 57° E 10:53:15 10° S visible
02 May ? 10:47:09 10° NNE 10:51:22 60° E 10:55:31 10° S visible
